Location: *
(28.3744°N, 81.5492°W)
Time: 03:08:02
(UTC+00:00)

NOSS 3-2 (C) - Pass Details

Date: 15 June 2025
Orbit: 686 x 1523 km, 63.4° (Epoch: 04 June)

Event Time Altitude Azimuth Distance (km) Brightness Sun altitude
Rises 01:23:37 0° 337° (NNW) 4,099 7.8 -11.9°
Reaches altitude 10° 01:26:17 10° 341° (NNW) 3,241 7.1 -12.4°
Maximum altitude 01:34:14 58° 60° (ENE) 1,620 4.5 -13.8°
Enters shadow 01:40:59 19° 132° (SE) 2,974 5.4 -15.0°
